When you browse on this site, cookies collect data to enhance your experience and personalize the content and advertising you see.
Visit our Privacy Policy to learn more. By continuing to use the site, you agree to this use of cookies and data.
  • en France
  • Liste des pays
  • À 7 jours
  • Température de l'eau
  • Carte satellitaire
  • Carte météo
  • Widgets météo
  • user-avatar
    Se connecter

    Météo par heure à Buenavista Tomatlán

    Ce jour, 19 Juillet, Vendredi

    Heure Température Précipitation Vent Pression Humidité
    00:00 +24°C° 0.4 mm 1 m/s 720 mmHg 86%
    01:00 +24°C° 0.4 mm 1 m/s 720 mmHg 88%
    02:00 +24°C° 0.4 mm 1 m/s 720 mmHg 89%
    03:00 +23°C° 0.2 mm 1 m/s 720 mmHg 89%
    04:00 +23°C° 0.2 mm 1 m/s 720 mmHg 90%
    05:00 +23°C° 0.2 mm 1 m/s 720 mmHg 90%
    06:00 +24°C° 0 mm 1 m/s 720 mmHg 86%
    07:00 +26°C° 0 mm 1 m/s 721 mmHg 82%
    08:00 +28°C° 0 mm 1 m/s 721 mmHg 78%
    09:00 +29°C° 0.3 mm 1 m/s 721 mmHg 72%
    10:00 +31°C° 0.3 mm 1 m/s 721 mmHg 65%
    11:00 +33°C° 0.3 mm 1 m/s 721 mmHg 59%
    12:00 +33°C° 0.5 mm 1 m/s 720 mmHg 58%
    13:00 +34°C° 0.5 mm 2 m/s 719 mmHg 56%
    14:00 +35°C° 0.5 mm 2 m/s 719 mmHg 54%
    15:00 +34°C° 0.5 mm 2 m/s 719 mmHg 59%
    16:00 +32°C° 0.5 mm 1 m/s 719 mmHg 64%
    17:00 +32°C° 0.5 mm 1 m/s 719 mmHg 69%
    18:00 +30°C° 0.6 mm 1 m/s 719 mmHg 74%
    19:00 +27°C° 0.6 mm 1 m/s 719 mmHg 79%
    20:00 +25°C° 0.6 mm 1 m/s 720 mmHg 85%
    21:00 +25°C° 1.8 mm 1 m/s 720 mmHg 87%
    22:00 +24°C° 1.8 mm 1 m/s 721 mmHg 90%
    23:00 +24°C° 1.8 mm 1 m/s 721 mmHg 92%

    Demain, 20 Juillet, Samedi

    Heure Température Précipitation Vent Pression Humidité
    00:00 +22°C° 2.1 mm 0 m/s 721 mmHg 93%
    01:00 +22°C° 2.1 mm 0 m/s 720 mmHg 95%
    02:00 +21°C° 2.1 mm 0 m/s 720 mmHg 96%
    03:00 +21°C° 3.2 mm 0 m/s 720 mmHg 97%
    04:00 +21°C° 3.2 mm 0 m/s 720 mmHg 97%
    05:00 +21°C° 3.2 mm 0 m/s 720 mmHg 97%
    06:00 +22°C° 0.9 mm 0 m/s 720 mmHg 96%
    07:00 +22°C° 0.9 mm 0 m/s 720 mmHg 95%
    08:00 +22°C° 0.9 mm 0 m/s 721 mmHg 95%
    09:00 +26°C° 0.1 mm 1 m/s 721 mmHg 87%
    10:00 +28°C° 0.1 mm 1 m/s 721 mmHg 80%
    11:00 +29°C° 0.1 mm 1 m/s 721 mmHg 72%
    12:00 +30°C° 0.6 mm 1 m/s 720 mmHg 71%
    13:00 +31°C° 0.6 mm 1 m/s 719 mmHg 69%
    14:00 +31°C° 0.6 mm 1 m/s 719 mmHg 68%
    15:00 +31°C° 0.8 mm 1 m/s 719 mmHg 72%
    16:00 +30°C° 0.8 mm 1 m/s 718 mmHg 75%
    17:00 +29°C° 0.8 mm 1 m/s 718 mmHg 79%
    18:00 +28°C° 1.2 mm 1 m/s 719 mmHg 83%
    19:00 +26°C° 1.2 mm 1 m/s 719 mmHg 88%
    20:00 +25°C° 1.2 mm 1 m/s 720 mmHg 92%
    21:00 +24°C° 0.7 mm 1 m/s 720 mmHg 93%
    22:00 +24°C° 0.7 mm 1 m/s 720 mmHg 93%
    23:00 +24°C° 0.7 mm 1 m/s 720 mmHg 94%

    Après-demain, 21 Juillet, Dimanche

    Heure Température Précipitation Vent Pression Humidité
    00:00 +24°C° 0.2 mm 1 m/s 720 mmHg 94%
    01:00 +24°C° 0.2 mm 1 m/s 720 mmHg 94%
    02:00 +24°C° 0.2 mm 1 m/s 720 mmHg 94%
    03:00 +23°C° 0 mm 1 m/s 720 mmHg 93%
    04:00 +21°C° 0 mm 0 m/s 720 mmHg 93%
    05:00 +21°C° 0 mm 0 m/s 720 mmHg 92%
    06:00 +22°C° 0 mm 0 m/s 720 mmHg 89%
    07:00 +23°C° 0 mm 0 m/s 721 mmHg 86%
    08:00 +25°C° 0 mm 0 m/s 721 mmHg 83%
    09:00 +26°C° 0.1 mm 0 m/s 721 mmHg 76%
    10:00 +30°C° 0.1 mm 1 m/s 721 mmHg 70%
    11:00 +32°C° 0.1 mm 1 m/s 721 mmHg 63%
    12:00 +32°C° 0.2 mm 1 m/s 721 mmHg 61%
    13:00 +32°C° 0.2 mm 1 m/s 720 mmHg 59%
    14:00 +33°C° 0.2 mm 1 m/s 720 mmHg 57%
    15:00 +32°C° 0.2 mm 1 m/s 720 mmHg 63%
    16:00 +31°C° 0.2 mm 1 m/s 719 mmHg 69%
    17:00 +29°C° 0.2 mm 1 m/s 719 mmHg 76%
    18:00 +28°C° 0 mm 1 m/s 719 mmHg 77%
    19:00 +27°C° 0 mm 1 m/s 720 mmHg 78%
    20:00 +26°C° 0 mm 1 m/s 720 mmHg 80%
    21:00 +25°C° 0 mm 1 m/s 720 mmHg 78%
    22:00 +25°C° 0 mm 1 m/s 721 mmHg 77%
    23:00 +25°C° 0 mm 1 m/s 721 mmHg 76%

    22 Juillet, Lundi

    Heure Température Précipitation Vent Pression Humidité
    00:00 +24°C° 0 mm 1 m/s 720 mmHg 76%
    01:00 +24°C° 0 mm 1 m/s 720 mmHg 76%
    02:00 +24°C° 0 mm 1 m/s 720 mmHg 76%
    03:00 +24°C° 0 mm 1 m/s 720 mmHg 76%
    04:00 +23°C° 0 mm 1 m/s 720 mmHg 76%
    05:00 +23°C° 0 mm 1 m/s 720 mmHg 76%
    06:00 +23°C° 0 mm 0 m/s 720 mmHg 73%
    07:00 +25°C° 0 mm 0 m/s 721 mmHg 71%
    08:00 +26°C° 0 mm 0 m/s 721 mmHg 69%
    09:00 +28°C° 0.1 mm 0 m/s 721 mmHg 65%
    10:00 +32°C° 0.1 mm 1 m/s 721 mmHg 61%
    11:00 +33°C° 0.1 mm 1 m/s 721 mmHg 57%
    12:00 +34°C° 0.2 mm 1 m/s 721 mmHg 54%
    13:00 +35°C° 0.2 mm 1 m/s 720 mmHg 52%
    14:00 +35°C° 0.2 mm 1 m/s 719 mmHg 50%
    15:00 +34°C° 0.2 mm 1 m/s 719 mmHg 55%
    16:00 +33°C° 0.2 mm 1 m/s 719 mmHg 59%
    17:00 +32°C° 0.2 mm 1 m/s 718 mmHg 64%
    18:00 +31°C° 0.1 mm 1 m/s 719 mmHg 67%
    19:00 +29°C° 0.1 mm 1 m/s 719 mmHg 70%
    20:00 +27°C° 0.1 mm 1 m/s 720 mmHg 73%
    21:00 +27°C° 0.5 mm 1 m/s 720 mmHg 76%
    22:00 +26°C° 0.5 mm 1 m/s 720 mmHg 78%
    23:00 +25°C° 0.5 mm 1 m/s 721 mmHg 81%

    23 Juillet, Mardi

    Heure Température Précipitation Vent Pression Humidité
    00:00 +25°C° 0.6 mm 1 m/s 720 mmHg 83%
    01:00 +25°C° 0.6 mm 1 m/s 720 mmHg 85%
    02:00 +25°C° 0.6 mm 1 m/s 719 mmHg 86%
    03:00 +22°C° 0.3 mm 0 m/s 720 mmHg 87%
    04:00 +22°C° 0.3 mm 0 m/s 720 mmHg 88%
    05:00 +22°C° 0.3 mm 0 m/s 720 mmHg 88%
    06:00 +22°C° 0.8 mm 0 m/s 720 mmHg 90%
    07:00 +23°C° 0.8 mm 0 m/s 721 mmHg 91%
    08:00 +23°C° 0.8 mm 0 m/s 721 mmHg 92%
    09:00 +23°C° 0.7 mm 0 m/s 721 mmHg 92%
    10:00 +23°C° 0.7 mm 0 m/s 721 mmHg 92%
    11:00 +23°C° 0.7 mm 0 m/s 720 mmHg 92%
    12:00 +27°C° 0.1 mm 1 m/s 720 mmHg 84%
    13:00 +29°C° 0.1 mm 1 m/s 719 mmHg 77%
    14:00 +30°C° 0.1 mm 1 m/s 719 mmHg 69%
    15:00 +30°C° 0.4 mm 1 m/s 719 mmHg 71%
    16:00 +30°C° 0.4 mm 1 m/s 719 mmHg 74%
    17:00 +27°C° 0.4 mm 0 m/s 719 mmHg 76%
    18:00 +26°C° 0.1 mm 0 m/s 719 mmHg 79%
    19:00 +25°C° 0.1 mm 0 m/s 719 mmHg 81%
    20:00 +25°C° 0.1 mm 1 m/s 720 mmHg 84%
    21:00 +25°C° 0 mm 1 m/s 720 mmHg 84%
    22:00 +23°C° 0 mm 0 m/s 720 mmHg 84%
    23:00 +23°C° 0 mm 0 m/s 721 mmHg 84%

    24 Juillet, Mercredi

    Heure Température Précipitation Vent Pression Humidité
    00:00 +24°C° 0.4 mm 1 m/s 720 mmHg 85%
    01:00 +24°C° 0.4 mm 1 m/s 720 mmHg 86%
    02:00 +23°C° 0.4 mm 1 m/s 720 mmHg 88%
    03:00 +23°C° 0.9 mm 1 m/s 720 mmHg 89%
    04:00 +21°C° 0.9 mm 0 m/s 720 mmHg 89%
    05:00 +21°C° 0.9 mm 0 m/s 720 mmHg 90%
    06:00 +22°C° 0.5 mm 0 m/s 721 mmHg 89%
    07:00 +23°C° 0.5 mm 0 m/s 721 mmHg 88%
    08:00 +24°C° 0.5 mm 0 m/s 721 mmHg 87%
    09:00 +28°C° 0.5 mm 1 m/s 721 mmHg 80%
    10:00 +30°C° 0.5 mm 1 m/s 721 mmHg 73%
    11:00 +32°C° 0.5 mm 1 m/s 721 mmHg 66%
    12:00 +32°C° 0.4 mm 1 m/s 720 mmHg 63%
    13:00 +33°C° 0.4 mm 1 m/s 720 mmHg 61%
    14:00 +33°C° 0.4 mm 1 m/s 719 mmHg 58%
    15:00 +32°C° 0.9 mm 1 m/s 719 mmHg 64%
    16:00 +31°C° 0.9 mm 1 m/s 719 mmHg 69%
    17:00 +30°C° 0.9 mm 1 m/s 719 mmHg 75%
    18:00 +28°C° 1.6 mm 1 m/s 719 mmHg 80%
    19:00 +27°C° 1.6 mm 1 m/s 719 mmHg 85%
    20:00 +25°C° 1.6 mm 1 m/s 720 mmHg 91%
    21:00 +25°C° 1.9 mm 1 m/s 720 mmHg 92%
    22:00 +24°C° 1.9 mm 1 m/s 720 mmHg 94%
    23:00 +24°C° 1.9 mm 1 m/s 720 mmHg 95%
    Voir plus